DW7628 Weather Reports


Display with metric or nautical units.
time (UTC)temp
F
wind
direction
speed
MPH
gust
MPH
rain 1hr
in
rain 24hr
in
rain mn
in
humidity
%
barometer
mb
20260902094805 91 25 0.0 0.0 0.00 0.00 0.00 25 1015.7
20260902094304 91 35 0.0 0.0 0.00 0.00 0.00 25 1015.7
20260902093805 90 123 0.0 0.0 0.00 0.00 0.00 27 1015.7
20260902093306 90 28 0.0 0.0 0.00 0.00 0.00 27 1015.7
20260902092805 90 295 0.0 0.0 0.00 0.00 0.00 27 1015.7
20260902092305 89 216 0.0 0.0 0.00 0.00 0.00 27 1015.7
20260902091805 89 100 0.0 0.0 0.00 0.00 0.00 27 1015.8
20260902091304 89 26 0.0 0.0 0.00 0.00 0.00 29 1015.7
20260902090805 89 358 0.0 0.0 0.00 0.00 0.00 31 1015.7
20260902090305 89 323 0.0 0.0 0.00 0.00 0.00 31 1015.8
20260902085306 88 60 0.0 0.0 0.00 0.00 0.00 31 1015.7
20260902084805 89 65 0.0 0.0 0.00 0.00 0.00 32 1015.7
20260902084304 88 35 0.0 0.0 0.00 0.00 0.00 32 1015.6
20260902083305 87 31 0.0 0.0 0.00 0.00 0.00 35 1015.5
20260902082804 86 133 0.0 0.0 0.00 0.00 0.00 37 1015.5
20260902082309 86 117 0.0 0.0 0.00 0.00 0.00 40 1015.4
20260902081805 85 127 0.0 0.0 0.00 0.00 0.00 41 1015.4
20260902081304 85 57 0.0 0.0 0.00 0.00 0.00 43 1015.4
20260902080804 84 45 0.0 0.0 0.00 0.00 0.00 44 1015.4
20260902080305 84 100 0.0 0.0 0.00 0.00 0.00 44 1015.4
20260902075805 83 19 0.0 0.0 0.00 0.00 0.00 44 1015.3
20260902075306 83 28 0.0 0.0 0.00 0.00 0.00 45 1015.1
20260902074805 83 15 0.0 0.0 0.00 0.00 0.00 46 1015.1
20260902074304 82 26 0.0 0.0 0.00 0.00 0.00 48 1015.1
20260902073804 82 81 0.0 0.0 0.00 0.00 0.00 48 1015.1
20260902073305 82 63 0.0 0.0 0.00 0.00 0.00 50 1015.1
20260902072805 81 332 0.0 0.0 0.00 0.00 0.00 51 1015.2
20260902072309 81 104 0.0 0.0 0.00 0.00 0.00 52 1015.2
20260902070805 80 73 0.0 0.0 0.00 0.00 0.00 54 1015.1
20260902070305 80 40 0.0 0.0 0.00 0.00 0.00 54 1015.2
20260902065306 80 38 0.0 0.0 0.00 0.00 0.00 56 1015.0
20260902063804 78 220 0.0 0.0 0.00 0.00 0.00 60 1014.8
20260902063305 78 57 0.0 0.0 0.00 0.00 0.00 62 1014.8
20260902062804 77 98 0.0 0.0 0.00 0.00 0.00 63 1014.9
20260902062306 77 43 0.0 0.0 0.00 0.00 0.00 64 1014.9
20260902061805 77 41 0.0 0.0 0.00 0.00 0.00 65 1014.8
20260902061304 76 35 0.0 0.0 0.00 0.00 0.00 65 1014.7
20260902060804 76 6 0.0 0.0 0.00 0.00 0.00 66 1014.6
20260902055307 75 347 0.0 0.0 0.00 0.00 0.00 68 1014.5
20260902054804 74 94 0.0 0.0 0.00 0.00 0.00 70 1014.5
20260902054304 74 188 0.0 0.0 0.00 0.00 0.00 71 1014.4
20260902053305 73 87 0.0 0.0 0.00 0.00 0.00 72 1014.4
20260902052805 73 359 0.0 0.0 0.00 0.00 0.00 72 1014.3
20260902052306 73 98 0.0 0.0 0.00 0.00 0.00 73 1014.2
20260902051804 73 153 0.0 0.0 0.00 0.00 0.00 73 1014.2
20260902050805 73 72 0.0 0.0 0.00 0.00 0.00 73 1014.3
20260902050304 73 30 0.0 0.0 0.00 0.00 0.00 74 1014.2
20260902045805 72 67 0.0 0.0 0.00 0.00 0.00 74 1014.3
20260902045306 72 100 0.0 0.0 0.00 0.00 0.00 75 1014.3
20260902044805 72 122 0.0 0.0 0.00 0.00 0.00 76 1014.3
20260902044304 72 116 0.0 0.0 0.00 0.00 0.00 76 1014.3
20260902043804 71 312 0.0 0.0 0.00 0.00 0.00 76 1014.2
20260902043304 71 212 0.0 0.0 0.00 0.00 0.00 75 1014.3
20260902042804 72 75 0.0 0.0 0.00 0.00 0.00 75 1014.3
20260902042308 72 74 0.0 0.0 0.00 0.00 0.00 75 1014.2
20260902041805 72 129 0.0 0.0 0.00 0.00 0.00 75 1014.3
20260902041304 72 35 0.0 0.0 0.00 0.00 0.00 74 1014.4
20260902040804 72 314 0.0 0.0 0.00 0.00 0.00 74 1014.3
20260902035804 72 186 0.0 0.0 0.00 0.00 0.00 73 1014.2
20260902035305 72 173 0.0 0.0 0.00 0.00 0.00 73 1014.2
20260902034804 73 97 0.0 0.0 0.00 0.00 0.00 73 1014.2
20260902034304 73 32 0.0 0.0 0.00 0.00 0.00 73 1014.1
20260902033804 73 238 0.0 0.0 0.00 0.00 0.00 72 1014.2
20260902033304 73 233 0.0 0.0 0.00 0.00 0.00 72 1014.2
20260902032804 73 12 0.0 0.0 0.00 0.00 0.00 73 1014.2
20260902032306 73 9 0.0 0.0 0.00 0.00 0.00 72 1014.2
20260902031804 73 9 0.0 0.0 0.00 0.00 0.00 72 1014.2
20260902031304 73 140 0.0 0.0 0.00 0.00 0.00 72 1014.3
20260902030804 73 11 0.0 0.0 0.00 0.00 0.00 73 1014.3
20260902030304 73 349 0.0 0.0 0.00 0.00 0.00 73 1014.3
20260902025804 72 347 0.0 0.0 0.00 0.00 0.00 73 1014.3
20260902025306 72 153 0.0 0.0 0.00 0.00 0.00 73 1014.4
20260902024804 72 188 0.0 0.0 0.00 0.00 0.00 74 1014.3
20260902024305 72 227 0.0 0.0 0.00 0.00 0.00 74 1014.3
20260902023305 73 230 0.0 0.0 0.00 0.00 0.00 73 1014.4
20260902022805 73 207 0.0 0.0 0.00 0.00 0.00 72 1014.4
20260902022306 73 355 0.0 0.0 0.00 0.00 0.00 72 1014.4
20260902021804 73 8 0.0 0.0 0.00 0.00 0.00 72 1014.3
20260902021304 73 42 0.0 0.0 0.00 0.00 0.00 72 1014.3
20260902020304 73 17 0.0 0.0 0.00 0.00 0.00 74 1014.4
20260902015804 73 27 0.0 0.0 0.00 0.00 0.00 75 1014.4
20260902015306 72 231 0.0 0.0 0.00 0.00 0.00 76 1014.4
20260902014804 72 18 0.0 0.0 0.00 0.00 0.00 76 1014.3
20260902014304 72 29 0.0 0.0 0.00 0.00 0.00 76 1014.3
20260902013304 72 148 0.0 0.0 0.00 0.00 0.00 77 1014.3
20260902012309 72 88 0.0 0.0 0.00 0.00 0.00 78 1014.4
20260902011804 72 156 0.0 0.0 0.00 0.00 0.00 79 1014.4
20260902011304 72 70 0.0 0.0 0.00 0.00 0.00 79 1014.5
20260902010804 72 75 0.0 0.0 0.00 0.00 0.00 79 1014.6
20260902010305 72 24 0.0 0.0 0.00 0.00 0.00 79 1014.6
20260902005804 72 229 0.0 0.0 0.00 0.00 0.00 79 1014.7
20260902004807 72 221 0.0 0.0 0.00 0.00 0.00 79 1014.7
20260902004307 72 222 0.0 0.0 0.00 0.00 0.00 79 1014.7
20260902003807 72 27 0.0 0.0 0.00 0.00 0.00 78 1014.7
20260902003307 72 207 0.0 0.0 0.00 0.00 0.00 79 1014.7
20260902002806 72 172 0.0 0.0 0.00 0.00 0.00 79 1014.7
20260902002307 72 204 0.0 0.0 0.00 0.00 0.00 79 1014.8
20260902001807 72 221 0.0 0.0 0.00 0.00 0.00 79 1014.8
20260902001308 73 136 0.0 0.0 0.00 0.00 0.00 79 1014.6
20260902000807 73 55 0.0 0.0 0.00 0.00 0.00 79 1014.6
20260902000307 73 39 0.0 0.0 0.00 0.00 0.00 79 1014.6
20260901235807 73 337 0.0 0.0 0.00 0.00 0.00 80 1014.7
20260901235308 73 68 0.0 0.0 0.00 0.00 0.00 79 1014.7
20260901234307 73 220 0.0 0.0 0.00 0.00 0.00 79 1014.7
20260901233807 73 160 0.0 0.0 0.00 0.00 0.00 78 1014.7
20260901233306 73 170 0.0 0.0 0.00 0.00 0.00 77 1014.8
20260901232807 73 224 0.0 0.0 0.00 0.00 0.00 76 1014.8
20260901232306 73 106 0.0 0.0 0.00 0.00 0.00 74 1014.8
20260901231807 74 141 0.0 0.0 0.00 0.00 0.00 74 1014.9
20260901231307 74 178 0.0 0.0 0.00 0.00 0.00 73 1014.8
20260901230307 74 105 0.0 0.0 0.00 0.00 0.00 72 1014.7
20260901225307 74 216 0.0 0.0 0.00 0.00 0.00 69 1014.8
20260901224806 74 268 0.0 0.0 0.00 0.00 0.00 67 1014.8
20260901224307 74 6 0.0 0.0 0.00 0.00 0.00 66 1014.8
20260901223307 74 123 0.0 0.0 0.00 0.00 0.00 64 1014.8
20260901222806 74 27 0.0 0.0 0.00 0.00 0.00 65 1014.8
20260901221807 74 21 0.0 0.0 0.00 0.00 0.00 66 1014.9
20260901221307 75 6 0.0 0.0 0.00 0.00 0.00 67 1014.9
20260901220828 75 26 0.0 0.0 0.00 0.00 0.00 67 1015.0
20260901220306 75 23 0.0 0.0 0.00 0.00 0.00 67 1015.0
20260901215807 75 0 0.0 0.0 0.00 0.00 0.00 67 1015.1
20260901215307 75 51 0.0 0.0 0.00 0.00 0.00 67 1015.0
20260901214307 75 41 0.0 0.0 0.00 0.00 0.00 65 1015.0
20260901213807 76 64 0.0 0.0 0.00 0.00 0.00 63 1015.0
20260901213307 76 99 0.0 0.0 0.00 0.00 0.00 62 1014.9
20260901212807 76 39 0.0 0.0 0.00 0.00 0.00 60 1015.0
20260901212306 76 97 0.0 0.0 0.00 0.00 0.00 58 1014.9
20260901211807 77 47 0.0 0.0 0.00 0.00 0.00 55 1014.9
20260901210807 77 25 0.0 0.0 0.00 0.00 0.00 54 1014.9
20260901210308 77 35 0.0 0.0 0.00 0.00 0.00 54 1014.9
20260901205806 77 56 0.0 0.0 0.00 0.00 0.00 54 1014.9
20260901205307 77 20 0.0 0.0 0.00 0.00 0.00 54 1014.9
20260901204806 77 177 0.0 0.0 0.00 0.00 0.00 54 1015.0
20260901203807 77 120 0.0 0.0 0.00 0.00 0.00 53 1015.0
20260901203306 77 39 0.0 0.0 0.00 0.00 0.00 53 1014.9
20260901202807 77 157 0.0 0.0 0.00 0.00 0.00 52 1014.8
20260901202306 78 64 0.0 0.0 0.00 0.00 0.00 52 1014.8
20260901201807 78 236 0.0 0.0 0.00 0.00 0.00 52 1014.8
20260901201307 78 164 0.0 0.0 0.00 0.00 0.00 52 1014.9
20260901200806 78 161 0.0 0.0 0.00 0.00 0.00 51 1014.8
20260901200309 78 160 0.0 0.0 0.00 0.00 0.00 51 1014.8
20260901195806 79 216 0.0 0.0 0.00 0.00 0.00 50 1014.8
20260901195308 79 186 0.0 0.0 0.00 0.00 0.00 50 1014.7
20260901194807 79 155 0.0 0.0 0.00 0.00 0.00 50 1014.7
20260901193806 79 3 0.0 0.0 0.00 0.00 0.00 49 1014.5
20260901193307 79 38 0.0 0.0 0.00 0.00 0.00 48 1014.4
20260901192307 80 18 0.0 0.0 0.00 0.00 0.00 48 1014.2
20260901191806 80 32 0.0 0.0 0.00 0.00 0.00 48 1014.2
20260901191307 80 27 0.0 0.0 0.00 0.00 0.00 48 1014.2
20260901190307 80 33 0.0 0.0 0.00 0.00 0.00 48 1014.2
20260901185806 80 122 0.0 0.0 0.00 0.00 0.00 48 1014.1
20260901185308 87 25 0.0 0.0 0.00 0.00 0.00 37 1012.9
20260901164305 87 344 0.0 0.0 0.00 0.00 0.00 38 1012.9
20260901163805 88 153 0.0 0.0 0.00 0.00 0.00 40 1012.9
20260901163305 88 43 0.0 0.0 0.00 0.00 0.00 39 1012.8
20260901162805 88 42 0.0 0.0 0.00 0.00 0.00 38 1012.8
20260901162306 88 51 0.0 0.0 0.00 0.00 0.00 39 1012.8
20260901161806 89 39 0.0 0.0 0.00 0.00 0.00 37 1012.7
20260901161306 90 27 0.0 0.0 0.00 0.00 0.00 36 1012.7
20260901160805 90 107 0.0 0.0 0.00 0.00 0.00 35 1012.6
20260901160305 91 215 0.0 0.0 0.00 0.00 0.00 35 1012.6
20260901155306 92 174 0.0 0.0 0.00 0.00 0.00 33 1012.4
20260901154805 92 26 0.0 0.0 0.00 0.00 0.00 32 1012.4
20260901154305 92 240 0.0 0.0 0.00 0.00 0.00 31 1012.3
20260901153805 92 201 0.0 0.0 0.00 0.00 0.00 31 1012.3
20260901153305 93 15 0.0 0.0 0.00 0.00 0.00 30 1012.3
20260901152806 93 79 0.0 0.0 0.00 0.00 0.00 29 1012.3
20260901152306 93 91 0.0 0.0 0.00 0.00 0.00 29 1012.3
20260901151805 93 346 0.0 0.0 0.00 0.00 0.00 29 1012.2
20260901151305 93 350 0.0 0.0 0.00 0.00 0.00 29 1012.3
20260901150305 93 341 0.0 0.0 0.00 0.00 0.00 28 1012.2
20260901145805 93 197 0.0 0.0 0.00 0.00 0.00 27 1012.2
20260901145306 92 259 0.0 0.0 0.00 0.00 0.00 27 1012.3
20260901144805 93 98 0.0 0.0 0.00 0.00 0.00 26 1012.3
20260901144305 93 34 0.0 0.0 0.00 0.00 0.00 27 1012.2
20260901143805 94 3 0.0 0.0 0.00 0.00 0.00 28 1012.2
20260901143305 94 222 0.0 0.0 0.00 0.00 0.00 29 1012.2
20260901142805 94 197 0.0 0.0 0.00 0.00 0.00 29 1012.2
20260901142306 94 244 0.0 0.0 0.00 0.00 0.00 30 1012.1
20260901141805 94 212 0.0 0.0 0.00 0.00 0.00 31 1012.2
20260901140806 94 23 0.0 0.0 0.00 0.00 0.00 31 1012.1
20260901140305 94 178 0.0 0.0 0.00 0.00 0.00 32 1012.1
20260901135805 95 342 0.0 0.0 0.00 0.00 0.00 31 1012.0
20260901135305 95 180 0.0 0.0 0.00 0.00 0.00 32 1012.1
20260901134805 95 246 0.0 0.0 0.00 0.00 0.00 32 1012.1
20260901134305 94 89 0.0 0.0 0.00 0.00 0.00 33 1012.1
20260901132805 95 214 0.0 0.0 0.00 0.00 0.00 33 1012.2
20260901132307 95 284 0.0 0.0 0.00 0.00 0.00 33 1012.2
20260901131804 95 206 0.0 0.0 0.00 0.00 0.00 33 1012.2
20260901131305 95 54 0.0 0.0 0.00 0.00 0.00 32 1012.3
20260901125805 95 172 0.0 0.0 0.00 0.00 0.00 33 1012.6
20260901125308 95 324 0.0 0.0 0.00 0.00 0.00 33 1012.5
20260901124806 94 162 0.0 0.0 0.00 0.00 0.00 32 1012.7
20260901124306 94 262 0.0 0.0 0.00 0.00 0.00 32 1012.8
20260901123804 95 277 0.0 0.0 0.00 0.00 0.00 33 1012.8
20260901123306 95 262 0.0 0.0 0.00 0.00 0.00 32 1012.9
20260901121808 95 193 0.0 0.0 0.00 0.00 0.00 33 1013.1
20260901121304 95 164 0.0 0.0 0.00 0.00 0.00 32 1013.1
20260901120804 95 267 0.0 0.0 0.00 0.00 0.00 32 1013.1
20260901120305 95 217 0.0 0.0 0.00 0.00 0.00 33 1013.1
20260901115306 94 168 0.0 0.0 0.00 0.00 0.00 34 1013.3
20260901114805 94 244 0.0 0.0 0.00 0.00 0.00 33 1013.3
20260901113806 94 134 0.0 0.0 0.00 0.00 0.00 32 1013.4
20260901113304 94 222 0.0 0.0 0.00 0.00 0.00 33 1013.4
20260901112806 94 188 0.0 0.0 0.00 0.00 0.00 33 1013.4
20260901112306 93 267 0.0 0.0 0.00 0.00 0.00 32 1013.4
20260901111805 93 150 0.0 0.0 0.00 0.00 0.00 31 1013.4
20260901110305 92 3 0.0 0.0 0.00 0.00 0.00 31 1013.5
20260901105804 92 50 0.0 0.0 0.00 0.00 0.00 30 1013.4
20260901105306 92 157 0.0 0.0 0.00 0.00 0.00 31 1013.5
20260901104805 92 111 0.0 0.0 0.00 0.00 0.00 31 1013.5
20260901104305 92 120 0.0 0.0 0.00 0.00 0.00 28 1013.6
20260901103806 92 201 0.0 0.0 0.00 0.00 0.00 31 1013.6
20260901103307 91 102 0.0 0.0 0.00 0.00 0.00 32 1013.6
20260901102805 90 130 0.0 0.0 0.00 0.00 0.00 33 1013.6
20260901102306 91 37 0.0 0.0 0.00 0.00 0.00 34 1013.7
20260901101805 91 84 0.0 0.0 0.00 0.00 0.00 33 1013.6
20260901100805 90 96 0.0 0.0 0.00 0.00 0.00 35 1013.6
20260901100307 89 153 0.0 0.0 0.00 0.00 0.00 35 1013.6
20260901095805 89 105 0.0 0.0 0.00 0.00 0.00 34 1013.6
20260901095308 89 126 0.0 0.0 0.00 0.00 0.00 35 1013.6